Time,TemperatureF,DewpointF,PressureIn,WindDirection,WindDirectionDegrees,WindSpeedMPH,WindSpeedGustMPH,Humidity,HourlyPrecipIn,Conditions,Clouds,dailyrainin,SolarRadiationWatts/m^2,SoftwareType,DateUTC
2013-05-25 00:01:00,49.6,36.7,30.45,NE,40,3.0,3.0,61,0.00,,CLR,0.00,0.00,VWS V14.01,2013-05-25 05:01:00,
2013-05-25 00:07:00,49.5,36.6,30.45,NE,53,5.0,6.0,61,0.00,,CLR,0.00,0.00,VWS V14.01,2013-05-25 05:07:00,
2013-05-25 00:12:00,49.4,36.9,30.46,NE,52,5.0,8.0,62,0.00,,CLR,0.00,0.00,VWS V14.01,2013-05-25 05:12:00,
2013-05-25 00:17:00,49.1,36.2,30.44,NE,51,3.0,8.0,61,0.00,,CLR,0.00,0.00,VWS V14.01,2013-05-25 05:17:00,
2013-05-25 00:23:00,48.9,35.6,30.45,NE,36,3.0,5.0,60,0.00,,CLR,0.00,0.00,VWS V14.01,2013-05-25 05:23:00,
2013-05-25 00:28:00,48.9,34.8,30.44,NE,49,10.0,10.0,58,0.00,,CLR,0.00,0.00,VWS V14.01,2013-05-25 05:28:00,
2013-05-25 00:33:00,48.9,34.8,30.43,ENE,63,7.0,8.0,58,0.00,,CLR,0.00,0.00,VWS V14.01,2013-05-25 05:33:00,
2013-05-25 00:38:00,48.8,34.7,30.43,ENE,67,5.0,5.0,58,0.00,,CLR,0.00,0.00,VWS V14.01,2013-05-25 05:38:00,
2013-05-25 00:43:00,48.6,34.1,30.43,ENE,61,4.0,5.0,57,0.00,,CLR,0.00,0.00,VWS V14.01,2013-05-25 05:43:00,
2013-05-25 00:48:00,48.5,33.5,30.43,ENE,71,5.0,11.0,56,0.00,,CLR,0.00,0.00,VWS V14.01,2013-05-25 05:48:00,
2013-05-25 00:53:00,48.5,33.5,30.43,East,89,2.0,11.0,56,0.00,,CLR,0.00,0.00,VWS V14.01,2013-05-25 05:53:00,
2013-05-25 00:58:00,48.3,33.8,30.42,NNE,22,4.0,5.0,57,0.00,,CLR,0.00,0.00,VWS V14.01,2013-05-25 05:58:00,
2013-05-25 01:03:00,48.2,33.3,30.42,ENE,67,4.0,6.0,56,0.00,,CLR,0.00,0.00,VWS V14.01,2013-05-25 06:03:00,
2013-05-25 01:08:00,48.2,33.7,30.42,NE,54,8.0,11.0,57,0.00,,CLR,0.00,0.00,VWS V14.01,2013-05-25 06:08:00,
2013-05-25 01:13:00,47.9,33.0,30.41,NE,55,5.0,8.0,56,0.00,,CLR,0.00,0.00,VWS V14.01,2013-05-25 06:13:00,
2013-05-25 01:19:00,47.7,32.3,30.41,ENE,66,4.0,7.0,55,0.00,,CLR,0.00,0.00,VWS V14.01,2013-05-25 06:19:00,
2013-05-25 01:24:00,47.9,32.5,30.40,ENE,63,4.0,5.0,55,0.00,,CLR,0.00,0.00,VWS V14.01,2013-05-25 06:24:00,
2013-05-25 01:30:00,47.9,32.1,30.40,ENE,63,3.0,6.0,54,0.00,,CLR,0.00,0.00,VWS V14.01,2013-05-25 06:30:00,
2013-05-25 01:35:00,47.9,32.1,30.40,East,80,3.0,4.0,54,0.00,,CLR,0.00,0.00,VWS V14.01,2013-05-25 06:35:00,
2013-05-25 01:40:00,47.7,31.9,30.40,ENE,67,4.0,6.0,54,0.00,,CLR,0.00,0.00,VWS V14.01,2013-05-25 06:40:00,
2013-05-25 01:45:00,47.7,31.9,30.40,East,84,5.0,5.0,54,0.00,,CLR,0.00,0.00,VWS V14.01,2013-05-25 06:45:00,
2013-05-25 01:50:00,47.7,31.9,30.41,ENE,73,3.0,6.0,54,0.00,,CLR,0.00,0.00,VWS V14.01,2013-05-25 06:50:00,
2013-05-25 01:55:00,47.7,31.9,30.40,ENE,61,3.0,5.0,54,0.00,,CLR,0.00,0.00,VWS V14.01,2013-05-25 06:55:00,
2013-05-25 02:00:00,47.6,32.2,30.40,ENE,63,3.0,3.0,55,0.00,,CLR,0.00,0.00,VWS V14.01,2013-05-25 07:00:00,
2013-05-25 02:05:00,47.6,34.0,30.40,ENE,71,2.0,4.0,59,0.00,,CLR,0.00,0.00,VWS V14.01,2013-05-25 07:05:00,
2013-05-25 02:10:00,47.3,32.4,30.40,ENE,74,2.0,7.0,56,0.00,,CLR,0.00,0.00,VWS V14.01,2013-05-25 07:10:00,
2013-05-25 02:16:00,47.3,32.4,30.39,East,90,4.0,6.0,56,0.00,,CLR,0.00,0.00,VWS V14.01,2013-05-25 07:16:00,
2013-05-25 02:21:00,47.1,32.2,30.39,ESE,113,1.0,8.0,56,0.00,,CLR,0.00,0.00,VWS V14.01,2013-05-25 07:21:00,
2013-05-25 02:27:00,47.3,32.0,30.39,East,99,4.0,6.0,55,0.00,,CLR,0.00,0.00,VWS V14.01,2013-05-25 07:27:00,
2013-05-25 02:32:00,47.3,32.0,30.38,East,88,4.0,6.0,55,0.00,,CLR,0.00,0.00,VWS V14.01,2013-05-25 07:32:00,
2013-05-25 02:37:00,47.4,31.6,30.38,East,96,1.0,5.0,54,0.00,,CLR,0.00,0.00,VWS V14.01,2013-05-25 07:37:00,
2013-05-25 02:43:00,47.6,31.8,30.37,East,88,2.0,5.0,54,0.00,,CLR,0.00,0.00,VWS V14.01,2013-05-25 07:43:00,
2013-05-25 02:48:00,47.6,31.8,30.37,SE,126,6.0,7.0,54,0.00,,CLR,0.00,0.00,VWS V14.01,2013-05-25 07:48:00,
2013-05-25 02:53:00,47.6,31.8,30.37,ESE,108,2.0,7.0,54,0.00,,CLR,0.00,0.00,VWS V14.01,2013-05-25 07:53:00,
2013-05-25 02:58:00,47.7,31.4,30.38,East,79,4.0,8.0,53,0.00,,CLR,0.00,0.00,VWS V14.01,2013-05-25 07:58:00,
2013-05-25 03:03:00,47.9,31.6,30.37,ENE,67,1.0,7.0,53,0.00,,CLR,0.00,0.00,VWS V14.01,2013-05-25 08:03:00,
2013-05-25 03:08:00,47.9,31.1,30.36,SE,128,5.0,6.0,52,0.00,,CLR,0.00,0.00,VWS V14.01,2013-05-25 08:08:00,
2013-05-25 03:13:00,48.0,30.8,30.36,East,80,8.0,8.0,51,0.00,,CLR,0.00,0.00,VWS V14.01,2013-05-25 08:13:00,
2013-05-25 03:18:00,48.0,30.3,30.36,ENE,78,1.0,7.0,50,0.00,,CLR,0.00,0.00,VWS V14.01,2013-05-25 08:18:00,
2013-05-25 03:23:00,48.2,30.5,30.37,ENE,74,1.0,4.0,50,0.00,,CLR,0.00,0.00,VWS V14.01,2013-05-25 08:23:00,
2013-05-25 03:28:00,48.3,30.5,30.37,ENE,63,0.0,2.0,50,0.00,,CLR,0.00,0.00,VWS V14.01,2013-05-25 08:28:00,
2013-05-25 03:33:00,48.3,30.5,30.38,ENE,63,2.0,4.0,50,0.00,,CLR,0.00,0.00,VWS V14.01,2013-05-25 08:33:00,
2013-05-25 03:39:00,48.5,30.2,30.38,NE,50,4.0,5.0,49,0.00,,CLR,0.00,0.00,VWS V14.01,2013-05-25 08:39:00,
2013-05-25 03:44:00,48.6,30.3,30.39,NE,51,1.0,5.0,49,0.00,,CLR,0.00,0.00,VWS V14.01,2013-05-25 08:44:00,
2013-05-25 03:49:00,48.8,30.5,30.38,ENE,77,0.0,7.0,49,0.00,,CLR,0.00,0.00,VWS V14.01,2013-05-25 08:49:00,
2013-05-25 03:54:00,48.6,30.3,30.38,ENE,70,4.0,11.0,49,0.00,,CLR,0.00,0.00,VWS V14.01,2013-05-25 08:54:00,
2013-05-25 03:59:00,48.6,30.8,30.41,NE,46,4.0,5.0,50,0.00,,CLR,0.00,0.00,VWS V14.01,2013-05-25 08:59:00,
2013-05-25 04:04:00,48.6,30.8,30.41,NE,47,3.0,3.0,50,0.00,,CLR,0.00,0.00,VWS V14.01,2013-05-25 09:04:00,
2013-05-25 04:10:00,48.6,31.3,30.41,NE,49,0.0,3.0,51,0.00,,CLR,0.00,0.00,VWS V14.01,2013-05-25 09:10:00,
2013-05-25 04:16:00,48.5,30.7,30.41,NE,37,0.0,7.0,50,0.00,,CLR,0.00,0.00,VWS V14.01,2013-05-25 09:16:00,
2013-05-25 04:21:00,48.6,30.8,30.41,ENE,59,1.0,2.0,50,0.00,,CLR,0.00,0.00,VWS V14.01,2013-05-25 09:21:00,
2013-05-25 04:26:00,48.6,30.3,30.41,ENE,61,3.0,5.0,49,0.00,,CLR,0.00,0.00,VWS V14.01,2013-05-25 09:26:00,
2013-05-25 04:31:00,48.6,30.8,30.41,NE,49,6.0,6.0,50,0.00,,CLR,0.00,0.00,VWS V14.01,2013-05-25 09:31:00,
2013-05-25 04:36:00,48.6,30.3,30.41,ENE,63,3.0,4.0,49,0.00,,CLR,0.00,0.00,VWS V14.01,2013-05-25 09:36:00,
2013-05-25 04:42:00,48.8,30.5,30.41,ENE,64,4.0,5.0,49,0.00,,CLR,0.00,0.00,VWS V14.01,2013-05-25 09:42:00,
2013-05-25 04:47:00,48.8,31.0,30.41,NNE,29,6.0,6.0,50,0.00,,CLR,0.00,0.00,VWS V14.01,2013-05-25 09:47:00,
2013-05-25 04:52:00,48.8,30.5,30.42,ENE,71,3.0,4.0,49,0.00,,CLR,0.00,0.00,VWS V14.01,2013-05-25 09:52:00,
2013-05-25 04:57:00,48.8,30.5,30.42,NE,41,2.0,7.0,49,0.00,,CLR,0.00,0.00,VWS V14.01,2013-05-25 09:57:00,
2013-05-25 05:02:00,48.8,30.5,30.42,NE,43,2.0,3.0,49,0.00,,CLR,0.00,0.00,VWS V14.01,2013-05-25 10:02:00,
2013-05-25 05:07:00,48.8,30.0,30.42,ENE,57,3.0,4.0,48,0.00,,CLR,0.00,0.00,VWS V14.01,2013-05-25 10:07:00,
2013-05-25 05:13:00,48.8,31.0,30.41,NE,49,3.0,4.0,50,0.00,,CLR,0.00,0.00,VWS V14.01,2013-05-25 10:13:00,
2013-05-25 05:18:00,48.6,31.3,30.42,NE,49,1.0,2.0,51,0.00,,CLR,0.00,0.00,VWS V14.01,2013-05-25 10:18:00,
2013-05-25 05:23:00,48.6,31.3,30.43,NE,44,0.0,1.0,51,0.00,,CLR,0.00,0.00,VWS V14.01,2013-05-25 10:23:00,
2013-05-25 05:29:00,48.6,31.3,30.43,NE,45,0.0,3.0,51,0.00,,CLR,0.00,0.00,VWS V14.01,2013-05-25 10:29:00,
2013-05-25 05:34:00,48.8,30.0,30.43,NE,45,0.0,0.0,48,0.00,,CLR,0.00,0.00,VWS V14.01,2013-05-25 10:34:00,
2013-05-25 05:39:00,48.9,29.6,30.43,NE,46,1.0,3.0,47,0.00,,CLR,0.00,0.00,VWS V14.01,2013-05-25 10:39:00,
2013-05-25 05:45:00,49.1,29.8,30.43,NE,46,2.0,3.0,47,0.00,,CLR,0.00,0.00,VWS V14.01,2013-05-25 10:45:00,
2013-05-25 05:50:00,49.2,29.9,30.43,NE,47,4.0,4.0,47,0.00,,CLR,0.00,0.00,VWS V14.01,2013-05-25 10:50:00,
2013-05-25 05:55:00,49.2,29.3,30.43,NE,55,0.0,3.0,46,0.00,,CLR,0.00,0.00,VWS V14.01,2013-05-25 10:55:00,
2013-05-25 06:00:00,49.4,29.5,30.44,ENE,61,1.0,4.0,46,0.00,,CLR,0.00,7.00,VWS V14.01,2013-05-25 11:00:00,
2013-05-25 06:05:00,49.5,29.6,30.44,ENE,62,2.0,4.0,46,0.00,,CLR,0.00,7.00,VWS V14.01,2013-05-25 11:05:00,
2013-05-25 06:10:00,49.5,29.6,30.44,ENE,63,0.0,3.0,46,0.00,,CLR,0.00,5.00,VWS V14.01,2013-05-25 11:10:00,
2013-05-25 06:16:00,49.5,30.1,30.44,NE,55,4.0,4.0,47,0.00,,CLR,0.00,7.00,VWS V14.01,2013-05-25 11:16:00,
2013-05-25 06:21:00,49.4,30.0,30.44,NE,55,1.0,1.0,47,0.00,,CLR,0.00,16.00,VWS V14.01,2013-05-25 11:21:00,
2013-05-25 06:26:00,49.5,30.1,30.44,ENE,57,4.0,4.0,47,0.00,,CLR,0.00,28.00,VWS V14.01,2013-05-25 11:26:00,
2013-05-25 06:31:00,49.6,30.2,30.44,ENE,57,1.0,2.0,47,0.00,,CLR,0.00,21.00,VWS V14.01,2013-05-25 11:31:00,
2013-05-25 06:36:00,49.6,30.2,30.45,NE,54,0.0,2.0,47,0.00,,CLR,0.00,19.00,VWS V14.01,2013-05-25 11:36:00,
2013-05-25 06:42:00,49.8,30.4,30.45,NE,54,0.0,0.0,47,0.00,,CLR,0.00,35.00,VWS V14.01,2013-05-25 11:42:00,
2013-05-25 06:47:00,49.9,31.5,30.47,NE,54,0.0,0.0,49,0.00,,CLR,0.00,39.00,VWS V14.01,2013-05-25 11:47:00,
2013-05-25 06:52:00,49.9,32.0,30.47,NE,54,2.0,2.0,50,0.00,,CLR,0.00,42.00,VWS V14.01,2013-05-25 11:52:00,
2013-05-25 06:57:00,49.8,32.4,30.47,NE,53,1.0,5.0,51,0.00,,CLR,0.00,51.00,VWS V14.01,2013-05-25 11:57:00,
2013-05-25 07:02:00,49.8,32.4,30.47,NE,53,3.0,4.0,51,0.00,,BKN110,0.00,60.00,VWS V14.01,2013-05-25 12:02:00,
2013-05-25 07:08:00,49.6,32.2,30.47,NE,53,0.0,4.0,51,0.00,,BKN110,0.00,42.00,VWS V14.01,2013-05-25 12:08:00,
2013-05-25 07:13:00,49.5,32.6,30.47,NE,54,0.0,3.0,52,0.00,,BKN110,0.00,28.00,VWS V14.01,2013-05-25 12:13:00,
2013-05-25 07:18:00,49.6,32.7,30.47,NE,54,2.0,3.0,52,0.00,,BKN110,0.00,28.00,VWS V14.01,2013-05-25 12:18:00,
2013-05-25 07:24:00,49.6,32.7,30.47,NE,54,0.0,1.0,52,0.00,,BKN110,0.00,35.00,VWS V14.01,2013-05-25 12:24:00,
2013-05-25 07:30:00,49.9,32.5,30.46,NE,55,4.0,4.0,51,0.00,,BKN110,0.00,39.00,VWS V14.01,2013-05-25 12:30:00,
2013-05-25 07:35:00,50.2,31.8,30.45,ESE,109,4.0,5.0,49,0.00,,BKN110,0.00,39.00,VWS V14.01,2013-05-25 12:35:00,
2013-05-25 07:40:00,50.7,32.2,30.44,SSE,152,7.0,7.0,49,0.00,,BKN110,0.00,35.00,VWS V14.01,2013-05-25 12:40:00,
2013-05-25 07:46:00,50.8,32.3,30.44,SSE,155,4.0,8.0,49,0.00,,BKN110,0.00,39.00,VWS V14.01,2013-05-25 12:46:00,
2013-05-25 07:51:00,50.7,31.2,30.45,SSE,155,2.0,5.0,47,0.00,,BKN110,0.00,42.00,VWS V14.01,2013-05-25 12:51:00,
2013-05-25 07:56:00,51.0,32.0,30.45,SSE,155,0.0,0.0,48,0.00,,BKN110,0.00,44.00,VWS V14.01,2013-05-25 12:56:00,
2013-05-25 08:01:00,51.1,30.5,30.46,SSE,155,0.0,1.0,45,0.00,,SCT110,0.00,42.00,VWS V14.01,2013-05-25 13:01:00,
2013-05-25 08:06:00,51.3,31.8,30.47,SSE,155,0.0,0.0,47,0.00,,SCT110,0.00,33.00,VWS V14.01,2013-05-25 13:06:00,
2013-05-25 08:11:00,51.3,31.2,30.46,SSE,155,4.0,5.0,46,0.00,,SCT110,0.00,23.00,VWS V14.01,2013-05-25 13:11:00,
2013-05-25 08:16:00,51.3,30.1,30.44,SE,143,5.0,11.0,44,0.00,,SCT110,0.00,23.00,VWS V14.01,2013-05-25 13:16:00,
2013-05-25 08:21:00,51.6,29.9,30.44,SE,134,2.0,6.0,43,0.00,,SCT110,0.00,33.00,VWS V14.01,2013-05-25 13:21:00,
2013-05-25 08:26:00,51.6,33.1,30.44,East,90,1.0,5.0,49,0.00,,SCT110,0.00,40.00,VWS V14.01,2013-05-25 13:26:00,
2013-05-25 08:31:00,51.1,35.0,30.45,East,81,0.0,2.0,54,0.00,,SCT110,0.00,54.00,VWS V14.01,2013-05-25 13:31:00,
2013-05-25 08:36:00,50.5,35.8,30.46,East,81,3.0,4.0,57,0.01,,SCT110,0.01,58.00,VWS V14.01,2013-05-25 13:36:00,
2013-05-25 08:41:00,49.8,36.5,30.45,NE,45,5.0,5.0,60,0.01,,SCT110,0.01,77.00,VWS V14.01,2013-05-25 13:41:00,
2013-05-25 08:46:00,49.2,37.6,30.46,NE,44,2.0,3.0,64,0.01,,SCT110,0.01,84.00,VWS V14.01,2013-05-25 13:46:00,
2013-05-25 08:51:00,48.9,37.7,30.46,NE,44,2.0,3.0,65,0.01,,SCT110,0.01,105.00,VWS V14.01,2013-05-25 13:51:00,
2013-05-25 08:56:00,48.6,36.2,30.46,ENE,57,3.0,3.0,62,0.01,,SCT110,0.01,118.00,VWS V14.01,2013-05-25 13:56:00,
2013-05-25 09:01:00,48.6,36.6,30.46,ENE,57,0.0,2.0,63,0.01,,SCT110,0.01,116.00,VWS V14.01,2013-05-25 14:01:00,
2013-05-25 09:06:00,48.8,36.4,30.45,ENE,74,2.0,4.0,62,0.01,,SCT110,0.01,97.00,VWS V14.01,2013-05-25 14:06:00,
2013-05-25 09:11:00,48.9,36.5,30.45,ENE,76,2.0,2.0,62,0.01,,SCT110,0.01,98.00,VWS V14.01,2013-05-25 14:11:00,
2013-05-25 09:16:00,49.1,36.2,30.45,East,85,0.0,1.0,61,0.01,,SCT110,0.01,135.00,VWS V14.01,2013-05-25 14:16:00,
2013-05-25 09:21:00,49.2,36.8,30.45,ESE,112,4.0,6.0,62,0.01,,SCT110,0.01,174.00,VWS V14.01,2013-05-25 14:21:00,
2013-05-25 09:26:00,49.5,37.0,30.44,ESE,111,2.0,5.0,62,0.01,,SCT110,0.01,179.00,VWS V14.01,2013-05-25 14:26:00,
2013-05-25 09:31:00,49.8,36.1,30.44,East,84,5.0,8.0,59,0.01,,SCT110,0.01,153.00,VWS V14.01,2013-05-25 14:31:00,
2013-05-25 09:36:00,50.2,34.2,30.44,East,101,4.0,8.0,54,0.01,,SCT110,0.01,162.00,VWS V14.01,2013-05-25 14:36:00,
2013-05-25 09:41:00,50.5,34.5,30.43,East,100,1.0,7.0,54,0.00,,SCT110,0.01,193.00,VWS V14.01,2013-05-25 14:41:00,
2013-05-25 09:46:00,50.8,33.8,30.43,ESE,104,2.0,5.0,52,0.00,,SCT110,0.01,234.00,VWS V14.01,2013-05-25 14:46:00,
2013-05-25 09:51:00,51.3,34.8,30.43,ENE,72,3.0,3.0,53,0.00,,SCT110,0.01,250.00,VWS V14.01,2013-05-25 14:51:00,
2013-05-25 09:56:00,51.6,34.1,30.43,SE,133,2.0,8.0,51,0.00,,SCT110,0.01,257.00,VWS V14.01,2013-05-25 14:56:00,
2013-05-25 10:01:00,52.0,34.0,30.43,East,81,6.0,6.0,50,0.00,,-RA,0.01,234.00,VWS V14.01,2013-05-25 15:01:00,
2013-05-25 10:06:00,52.2,34.6,30.44,East,85,1.0,3.0,51,0.00,,-RA,0.01,193.00,VWS V14.01,2013-05-25 15:06:00,
2013-05-25 10:12:00,52.3,34.7,30.44,East,82,3.0,4.0,51,0.00,,-RA,0.01,148.00,VWS V14.01,2013-05-25 15:12:00,
2013-05-25 10:17:00,52.5,34.4,30.44,SE,130,2.0,5.0,50,0.00,,-RA,0.01,123.00,VWS V14.01,2013-05-25 15:17:00,
2013-05-25 10:22:00,52.8,35.2,30.45,SE,130,0.0,1.0,51,0.00,,-RA,0.01,116.00,VWS V14.01,2013-05-25 15:22:00,
2013-05-25 10:27:00,52.9,35.3,30.44,SE,130,1.0,2.0,51,0.00,,-RA,0.01,125.00,VWS V14.01,2013-05-25 15:27:00,
2013-05-25 10:32:00,52.9,34.8,30.45,SE,129,1.0,5.0,50,0.00,,-RA,0.01,163.00,VWS V14.01,2013-05-25 15:32:00,
2013-05-25 10:37:00,53.1,35.0,30.45,SE,129,2.0,4.0,50,0.00,,-RA,0.01,165.00,VWS V14.01,2013-05-25 15:37:00,
2013-05-25 10:42:00,53.3,35.2,30.45,SE,129,4.0,4.0,50,0.00,,-RA,0.01,162.00,VWS V14.01,2013-05-25 15:42:00,
2013-05-25 10:47:00,53.6,33.9,30.45,East,94,2.0,5.0,47,0.00,,-RA,0.01,153.00,VWS V14.01,2013-05-25 15:47:00,
2013-05-25 10:52:00,53.9,33.6,30.45,East,96,1.0,5.0,46,0.00,,-RA,0.01,142.00,VWS V14.01,2013-05-25 15:52:00,
2013-05-25 10:57:00,54.1,32.7,30.46,ESE,103,0.0,2.0,44,0.00,,-RA,0.01,118.00,VWS V14.01,2013-05-25 15:57:00,
2013-05-25 11:02:00,54.4,31.8,30.47,ESE,114,2.0,5.0,42,0.00,,-RA,0.01,98.00,VWS V14.01,2013-05-25 16:02:00,
2013-05-25 11:08:00,54.7,32.1,30.47,ESE,113,0.0,1.0,42,0.00,,-RA,0.01,86.00,VWS V14.01,2013-05-25 16:08:00,
2013-05-25 11:13:00,54.7,32.1,30.48,ESE,113,0.0,2.0,42,0.00,,-RA,0.01,90.00,VWS V14.01,2013-05-25 16:13:00,
2013-05-25 11:18:00,54.7,32.1,30.48,ESE,113,1.0,2.0,42,0.00,,-RA,0.01,83.00,VWS V14.01,2013-05-25 16:18:00,
2013-05-25 11:24:00,54.8,32.8,30.48,ESE,113,0.0,1.0,43,0.00,,-RA,0.01,95.00,VWS V14.01,2013-05-25 16:24:00,
2013-05-25 11:29:00,54.8,33.9,30.48,ESE,113,0.0,0.0,45,0.00,,-RA,0.01,93.00,VWS V14.01,2013-05-25 16:29:00,
2013-05-25 11:35:00,54.8,32.8,30.49,ESE,113,0.0,1.0,43,0.00,,-RA,0.01,83.00,VWS V14.01,2013-05-25 16:35:00,
2013-05-25 11:40:00,55.0,35.2,30.49,ESE,113,0.0,0.0,47,0.00,,-RA,0.01,81.00,VWS V14.01,2013-05-25 16:40:00,
2013-05-25 11:45:00,55.0,34.6,30.50,ESE,113,0.0,0.0,46,0.00,,-RA,0.01,77.00,VWS V14.01,2013-05-25 16:45:00,
2013-05-25 11:50:00,55.1,38.8,30.50,ESE,113,0.0,0.0,54,0.01,,-RA,0.02,77.00,VWS V14.01,2013-05-25 16:50:00,
2013-05-25 11:55:00,55.0,37.7,30.49,ESE,113,0.0,0.0,52,0.01,,-RA,0.02,79.00,VWS V14.01,2013-05-25 16:55:00,
2013-05-25 12:00:00,54.7,36.9,30.49,ESE,113,2.0,2.0,51,0.01,,-RA,0.02,77.00,VWS V14.01,2013-05-25 17:00:00,
2013-05-25 12:05:00,54.4,36.2,30.48,ESE,113,0.0,0.0,50,0.01,,BKN100,0.02,69.00,VWS V14.01,2013-05-25 17:05:00,
2013-05-25 12:10:00,54.2,39.3,30.48,ESE,113,0.0,0.0,57,0.01,,BKN100,0.02,67.00,VWS V14.01,2013-05-25 17:10:00,
2013-05-25 12:15:00,53.8,40.3,30.48,ESE,113,0.0,0.0,60,0.01,,BKN100,0.02,65.00,VWS V14.01,2013-05-25 17:15:00,
2013-05-25 12:20:00,53.3,41.0,30.47,ESE,113,0.0,1.0,63,0.01,,BKN100,0.02,63.00,VWS V14.01,2013-05-25 17:20:00,
2013-05-25 12:25:00,52.8,41.0,30.47,ESE,113,4.0,5.0,64,0.02,,BKN100,0.03,62.00,VWS V14.01,2013-05-25 17:25:00,
2013-05-25 12:30:00,52.5,40.3,30.47,ESE,120,2.0,6.0,63,0.02,,BKN100,0.03,62.00,VWS V14.01,2013-05-25 17:30:00,
2013-05-25 12:35:00,52.2,40.8,30.46,ESE,120,5.0,6.0,65,0.02,,BKN100,0.03,65.00,VWS V14.01,2013-05-25 17:35:00,
2013-05-25 12:40:00,51.9,40.5,30.45,SE,146,6.0,6.0,65,0.03,,BKN100,0.04,70.00,VWS V14.01,2013-05-25 17:40:00,
2013-05-25 12:45:00,52.0,39.4,30.45,SSE,152,2.0,6.0,62,0.03,,BKN100,0.04,79.00,VWS V14.01,2013-05-25 17:45:00,
2013-05-25 12:50:00,52.0,39.4,30.44,SE,134,4.0,7.0,62,0.02,,BKN100,0.04,88.00,VWS V14.01,2013-05-25 17:50:00,
2013-05-25 12:55:00,51.7,38.3,30.42,SE,138,7.0,8.0,60,0.03,,BKN100,0.05,95.00,VWS V14.01,2013-05-25 17:55:00,
2013-05-25 13:01:00,51.4,40.8,30.41,SSE,152,6.0,8.0,67,0.04,,BKN100,0.06,102.00,VWS V14.01,2013-05-25 18:01:00,
2013-05-25 13:06:00,51.1,41.3,30.41,SSE,151,4.0,7.0,69,0.04,,BKN100,0.06,123.00,VWS V14.01,2013-05-25 18:06:00,
2013-05-25 13:11:00,51.0,42.3,30.41,SE,142,6.0,6.0,72,0.04,,BKN100,0.06,139.00,VWS V14.01,2013-05-25 18:11:00,
2013-05-25 13:16:00,51.1,42.8,30.40,SE,140,4.0,6.0,73,0.04,,BKN100,0.06,139.00,VWS V14.01,2013-05-25 18:16:00,
2013-05-25 13:21:00,51.1,42.8,30.40,SSE,149,4.0,6.0,73,0.04,,BKN100,0.06,127.00,VWS V14.01,2013-05-25 18:21:00,
2013-05-25 13:26:00,51.1,42.8,30.39,SSE,159,7.0,8.0,73,0.03,,BKN100,0.06,105.00,VWS V14.01,2013-05-25 18:26:00,
2013-05-25 13:31:00,51.1,42.8,30.38,SE,141,6.0,12.0,73,0.03,,BKN100,0.06,93.00,VWS V14.01,2013-05-25 18:31:00,
2013-05-25 13:36:00,51.1,43.1,30.37,SE,137,5.0,9.0,74,0.03,,BKN100,0.06,95.00,VWS V14.01,2013-05-25 18:36:00,
2013-05-25 13:41:00,51.0,43.0,30.36,SE,131,11.0,11.0,74,0.03,,BKN100,0.07,86.00,VWS V14.01,2013-05-25 18:41:00,
2013-05-25 13:46:00,51.1,43.1,30.37,ESE,121,6.0,6.0,74,0.03,,BKN100,0.07,81.00,VWS V14.01,2013-05-25 18:46:00,
2013-05-25 13:51:00,51.1,43.1,30.39,SE,132,1.0,2.0,74,0.03,,BKN100,0.07,83.00,VWS V14.01,2013-05-25 18:51:00,
2013-05-25 13:56:00,51.3,44.0,30.39,SE,132,2.0,4.0,76,0.03,,BKN100,0.08,88.00,VWS V14.01,2013-05-25 18:56:00,
2013-05-25 14:01:00,51.4,44.1,30.40,SE,132,1.0,1.0,76,0.03,,-RA,0.08,83.00,VWS V14.01,2013-05-25 19:01:00,
2013-05-25 14:07:00,51.4,44.4,30.39,SE,132,0.0,0.0,77,0.02,,-RA,0.08,86.00,VWS V14.01,2013-05-25 19:07:00,
2013-05-25 14:12:00,51.4,44.8,30.39,SE,131,0.0,2.0,78,0.02,,-RA,0.08,88.00,VWS V14.01,2013-05-25 19:12:00,
2013-05-25 14:17:00,51.3,45.0,30.38,ESE,115,2.0,6.0,79,0.03,,-RA,0.09,84.00,VWS V14.01,2013-05-25 19:17:00,
2013-05-25 14:22:00,51.3,45.7,30.37,ESE,109,4.0,7.0,81,0.03,,-RA,0.09,77.00,VWS V14.01,2013-05-25 19:22:00,
2013-05-25 14:27:00,51.1,45.5,30.37,ESE,111,4.0,5.0,81,0.04,,-RA,0.10,74.00,VWS V14.01,2013-05-25 19:27:00,
2013-05-25 14:32:00,51.0,45.7,30.36,SE,144,4.0,5.0,82,0.04,,-RA,0.10,74.00,VWS V14.01,2013-05-25 19:32:00,
2013-05-25 14:37:00,51.1,46.1,30.37,SSE,148,2.0,2.0,83,0.05,,-RA,0.11,70.00,VWS V14.01,2013-05-25 19:37:00,
2013-05-25 14:42:00,51.3,46.3,30.37,SE,146,1.0,5.0,83,0.05,,-RA,0.12,74.00,VWS V14.01,2013-05-25 19:42:00,
2013-05-25 14:47:00,51.3,46.6,30.34,ESE,115,6.0,9.0,84,0.06,,-RA,0.13,125.00,VWS V14.01,2013-05-25 19:47:00,
2013-05-25 14:52:00,51.3,47.0,30.35,ESE,119,4.0,6.0,85,0.06,,-RA,0.13,141.00,VWS V14.01,2013-05-25 19:52:00,
2013-05-25 14:57:00,51.3,47.3,30.34,ESE,114,5.0,6.0,86,0.06,,-RA,0.14,167.00,VWS V14.01,2013-05-25 19:57:00,
2013-05-25 15:02:00,51.4,47.7,30.32,East,90,0.0,2.0,87,0.06,,-RA,0.14,185.00,VWS V14.01,2013-05-25 20:02:00,
2013-05-25 15:07:00,51.4,47.7,30.31,SE,125,2.0,8.0,87,0.06,,-RA,0.14,274.00,VWS V14.01,2013-05-25 20:07:00,
2013-05-25 15:12:00,51.7,48.3,30.31,East,97,5.0,7.0,88,0.06,,-RA,0.14,283.00,VWS V14.01,2013-05-25 20:12:00,
2013-05-25 15:17:00,52.0,48.3,30.31,ENE,76,2.0,5.0,87,0.05,,-RA,0.14,207.00,VWS V14.01,2013-05-25 20:17:00,
2013-05-25 15:22:00,52.3,48.5,30.32,ESE,115,7.0,8.0,87,0.05,,-RA,0.14,125.00,VWS V14.01,2013-05-25 20:22:00,
2013-05-25 15:27:00,52.3,48.2,30.32,ESE,110,4.0,5.0,86,0.04,,-RA,0.14,181.00,VWS V14.01,2013-05-25 20:27:00,
2013-05-25 15:32:00,52.6,48.2,30.32,ESE,118,9.0,9.0,85,0.04,,-RA,0.14,174.00,VWS V14.01,2013-05-25 20:32:00,
2013-05-25 15:37:00,52.9,48.2,30.32,ESE,120,2.0,6.0,84,0.03,,-RA,0.14,167.00,VWS V14.01,2013-05-25 20:37:00,
2013-05-25 15:42:00,53.1,48.4,30.32,SE,136,8.0,9.0,84,0.03,,-RA,0.14,239.00,VWS V14.01,2013-05-25 20:42:00,
2013-05-25 15:47:00,53.3,48.6,30.33,SE,136,6.0,7.0,84,0.02,,-RA,0.14,232.00,VWS V14.01,2013-05-25 20:47:00,
2013-05-25 15:52:00,53.3,48.6,30.34,SSE,148,5.0,5.0,84,0.01,,-RA,0.14,109.00,VWS V14.01,2013-05-25 20:52:00,
2013-05-25 15:57:00,53.3,48.6,30.35,SSE,148,5.0,7.0,84,0.00,,-RA,0.14,88.00,VWS V14.01,2013-05-25 20:57:00,
2013-05-25 16:02:00,53.5,48.5,30.34,SE,130,5.0,5.0,83,0.00,,-RA,0.14,183.00,VWS V14.01,2013-05-25 21:02:00,
2013-05-25 16:07:00,53.6,48.6,30.34,SE,132,6.0,8.0,83,0.00,,-RA,0.14,183.00,VWS V14.01,2013-05-25 21:07:00,
2013-05-25 16:12:00,53.6,48.9,30.34,SSE,156,2.0,7.0,84,0.01,,-RA,0.15,169.00,VWS V14.01,2013-05-25 21:12:00,
2013-05-25 16:17:00,53.6,48.6,30.35,SE,141,1.0,6.0,83,0.01,,-RA,0.15,149.00,VWS V14.01,2013-05-25 21:17:00,
2013-05-25 16:22:00,53.8,48.8,30.35,SE,142,2.0,2.0,83,0.01,,-RA,0.15,160.00,VWS V14.01,2013-05-25 21:22:00,
2013-05-25 16:27:00,53.9,48.9,30.35,SE,142,0.0,2.0,83,0.01,,-RA,0.15,151.00,VWS V14.01,2013-05-25 21:27:00,
2013-05-25 16:32:00,53.9,48.5,30.35,SE,141,0.0,4.0,82,0.01,,-RA,0.15,141.00,VWS V14.01,2013-05-25 21:32:00,
2013-05-25 16:38:00,53.9,48.2,30.35,SE,141,2.0,5.0,81,0.01,,-RA,0.15,141.00,VWS V14.01,2013-05-25 21:38:00,
2013-05-25 16:43:00,54.2,48.8,30.35,SE,141,1.0,4.0,82,0.01,,-RA,0.15,105.00,VWS V14.01,2013-05-25 21:43:00,
2013-05-25 16:48:00,54.4,49.0,30.36,SE,134,4.0,5.0,82,0.01,,-RA,0.15,81.00,VWS V14.01,2013-05-25 21:48:00,
2013-05-25 16:53:00,54.2,48.5,30.36,SE,131,2.0,4.0,81,0.01,,-RA,0.15,63.00,VWS V14.01,2013-05-25 21:53:00,
2013-05-25 16:58:00,54.2,48.8,30.37,East,88,1.0,3.0,82,0.01,,-RA,0.15,46.00,VWS V14.01,2013-05-25 21:58:00,
2013-05-25 17:03:00,54.4,49.3,30.37,East,89,0.0,1.0,83,0.01,,-RA,0.15,44.00,VWS V14.01,2013-05-25 22:03:00,
2013-05-25 17:08:00,54.2,48.8,30.38,East,89,0.0,0.0,82,0.01,,-RA,0.15,30.00,VWS V14.01,2013-05-25 22:08:00,
2013-05-25 17:13:00,54.2,49.5,30.37,East,89,2.0,3.0,84,0.00,,-RA,0.15,28.00,VWS V14.01,2013-05-25 22:13:00,
2013-05-25 17:18:00,54.1,49.1,30.38,East,89,0.0,0.0,83,0.00,,-RA,0.15,32.00,VWS V14.01,2013-05-25 22:18:00,
2013-05-25 17:23:00,54.1,49.1,30.37,East,89,0.0,0.0,83,0.00,,-RA,0.15,49.00,VWS V14.01,2013-05-25 22:23:00,
2013-05-25 17:28:00,54.1,49.4,30.37,East,89,0.0,0.0,84,0.01,,-RA,0.16,47.00,VWS V14.01,2013-05-25 22:28:00,
2013-05-25 17:33:00,54.1,49.4,30.38,East,89,0.0,0.0,84,0.01,,-RA,0.16,33.00,VWS V14.01,2013-05-25 22:33:00,
2013-05-25 17:38:00,53.9,49.2,30.38,East,89,0.0,0.0,84,0.01,,-RA,0.16,33.00,VWS V14.01,2013-05-25 22:38:00,
2013-05-25 17:43:00,53.9,49.2,30.37,East,89,0.0,0.0,84,0.01,,-RA,0.16,33.00,VWS V14.01,2013-05-25 22:43:00,
2013-05-25 17:48:00,53.8,49.1,30.37,East,89,1.0,1.0,84,0.01,,-RA,0.16,28.00,VWS V14.01,2013-05-25 22:48:00,
2013-05-25 17:54:00,53.8,49.4,30.37,East,89,0.0,2.0,85,0.01,,-RA,0.16,23.00,VWS V14.01,2013-05-25 22:54:00,
2013-05-25 17:59:00,53.8,49.4,30.37,East,89,1.0,4.0,85,0.01,,-RA,0.16,23.00,VWS V14.01,2013-05-25 22:59:00,
2013-05-25 18:04:00,53.6,49.5,30.38,East,89,0.0,0.0,86,0.01,,-RA,0.16,25.00,VWS V14.01,2013-05-25 23:04:00,
2013-05-25 18:09:00,53.6,49.8,30.38,East,89,0.0,0.0,87,0.01,,-RA,0.16,21.00,VWS V14.01,2013-05-25 23:09:00,
2013-05-25 18:14:00,53.5,49.7,30.38,East,89,0.0,0.0,87,0.01,,-RA,0.16,18.00,VWS V14.01,2013-05-25 23:14:00,
2013-05-25 18:19:00,53.6,49.8,30.38,East,89,0.0,0.0,87,0.01,,-RA,0.16,19.00,VWS V14.01,2013-05-25 23:19:00,
2013-05-25 18:24:00,53.6,50.1,30.38,East,89,3.0,3.0,88,0.01,,-RA,0.16,16.00,VWS V14.01,2013-05-25 23:24:00,
2013-05-25 18:29:00,53.5,50.0,30.36,ENE,74,5.0,5.0,88,0.00,,-RA,0.16,18.00,VWS V14.01,2013-05-25 23:29:00,
2013-05-25 18:34:00,53.2,49.7,30.37,NE,38,5.0,7.0,88,0.00,,-RA,0.16,16.00,VWS V14.01,2013-05-25 23:34:00,
2013-05-25 18:39:00,52.9,49.5,30.36,NE,50,4.0,7.0,88,0.00,,-RA,0.16,12.00,VWS V14.01,2013-05-25 23:39:00,
2013-05-25 18:44:00,52.8,49.3,30.36,NE,38,4.0,6.0,88,0.00,,-RA,0.16,7.00,VWS V14.01,2013-05-25 23:44:00,
2013-05-25 18:49:00,52.8,49.3,30.36,NNE,32,6.0,7.0,88,0.00,,-RA,0.16,7.00,VWS V14.01,2013-05-25 23:49:00,
2013-05-25 18:54:00,52.8,49.3,30.36,NE,43,3.0,5.0,88,0.00,,-RA,0.16,5.00,VWS V14.01,2013-05-25 23:54:00,
2013-05-25 18:59:00,52.6,49.2,30.36,NE,51,2.0,11.0,88,0.00,,-RA,0.16,5.00,VWS V14.01,2013-05-25 23:59:00,
2013-05-25 19:04:00,52.8,49.7,30.36,NE,39,5.0,6.0,89,0.00,,-RA,0.16,9.00,VWS V14.01,2013-05-26 00:04:00,
2013-05-25 19:09:00,52.6,49.5,30.36,NNE,13,5.0,7.0,89,0.00,,-RA,0.16,7.00,VWS V14.01,2013-05-26 00:09:00,
2013-05-25 19:15:00,52.5,49.4,30.37,NE,34,7.0,10.0,89,0.00,,-RA,0.16,5.00,VWS V14.01,2013-05-26 00:15:00,
2013-05-25 19:20:00,52.5,49.0,30.37,NE,52,5.0,9.0,88,0.01,,-RA,0.17,5.00,VWS V14.01,2013-05-26 00:20:00,
2013-05-25 19:26:00,52.3,48.5,30.36,NE,44,3.0,11.0,87,0.01,,-RA,0.17,0.00,VWS V14.01,2013-05-26 00:26:00,
2013-05-25 19:32:00,52.2,48.2,30.37,NE,49,7.0,11.0,86,0.01,,-RA,0.17,0.00,VWS V14.01,2013-05-26 00:32:00,
2013-05-25 19:37:00,52.2,48.2,30.36,NE,47,12.0,12.0,86,0.01,,-RA,0.17,0.00,VWS V14.01,2013-05-26 00:37:00,
2013-05-25 19:42:00,52.0,48.0,30.36,NE,49,5.0,8.0,86,0.01,,-RA,0.17,0.00,VWS V14.01,2013-05-26 00:42:00,
2013-05-25 19:47:00,51.9,48.2,30.37,NNE,30,9.0,11.0,87,0.01,,-RA,0.17,0.00,VWS V14.01,2013-05-26 00:47:00,
2013-05-25 19:52:00,51.7,48.3,30.37,NE,36,7.0,9.0,88,0.01,,-RA,0.17,0.00,VWS V14.01,2013-05-26 00:52:00,
2013-05-25 19:57:00,51.1,47.7,30.37,NNE,32,9.0,12.0,88,0.01,,-RA,0.17,0.00,VWS V14.01,2013-05-26 00:57:00,
2013-05-25 20:02:00,50.8,47.4,30.37,North,360,6.0,10.0,88,0.01,,-RA,0.17,0.00,VWS V14.01,2013-05-26 01:02:00,
2013-05-25 20:08:00,50.4,47.0,30.37,ENE,72,2.0,5.0,88,0.01,,-RA,0.17,0.00,VWS V14.01,2013-05-26 01:08:00,
2013-05-25 20:13:00,50.2,46.8,30.37,NNE,32,2.0,6.0,88,0.01,,-RA,0.17,0.00,VWS V14.01,2013-05-26 01:13:00,
2013-05-25 20:18:00,50.1,46.7,30.37,NE,37,7.0,7.0,88,0.01,,-RA,0.17,0.00,VWS V14.01,2013-05-26 01:18:00,
2013-05-25 20:24:00,49.8,46.4,30.37,NE,38,9.0,15.0,88,0.01,,-RA,0.18,0.00,VWS V14.01,2013-05-26 01:24:00,
2013-05-25 20:30:00,49.4,46.0,30.36,NE,36,4.0,10.0,88,0.01,,-RA,0.18,0.00,VWS V14.01,2013-05-26 01:30:00,
2013-05-25 20:35:00,49.2,46.1,30.36,ENE,76,6.0,9.0,89,0.01,,-RA,0.18,0.00,VWS V14.01,2013-05-26 01:35:00,
2013-05-25 20:40:00,49.2,46.4,30.36,NE,44,13.0,13.0,90,0.01,,-RA,0.18,0.00,VWS V14.01,2013-05-26 01:40:00,
2013-05-25 20:46:00,49.2,46.4,30.36,NE,45,6.0,10.0,90,0.01,,-RA,0.18,0.00,VWS V14.01,2013-05-26 01:46:00,
2013-05-25 20:51:00,49.1,46.6,30.36,NE,52,12.0,13.0,91,0.01,,-RA,0.18,0.00,VWS V14.01,2013-05-26 01:51:00,
2013-05-25 20:56:00,49.1,46.9,30.36,NE,38,5.0,7.0,92,0.01,,-RA,0.18,0.00,VWS V14.01,2013-05-26 01:56:00,
2013-05-25 21:01:00,48.9,46.7,30.35,ENE,74,2.0,9.0,92,0.01,,-RA,0.18,0.00,VWS V14.01,2013-05-26 02:01:00,
2013-05-25 21:06:00,48.8,46.6,30.35,NE,45,3.0,7.0,92,0.01,,-RA,0.18,0.00,VWS V14.01,2013-05-26 02:06:00,
2013-05-25 21:11:00,48.8,46.6,30.35,ENE,64,5.0,13.0,92,0.01,,-RA,0.18,0.00,VWS V14.01,2013-05-26 02:11:00,
2013-05-25 21:16:00,48.8,46.6,30.35,ENE,67,4.0,8.0,92,0.01,,-RA,0.18,0.00,VWS V14.01,2013-05-26 02:16:00,
2013-05-25 21:21:00,48.5,46.3,30.35,ENE,72,11.0,11.0,92,0.01,,-RA,0.18,0.00,VWS V14.01,2013-05-26 02:21:00,
2013-05-25 21:27:00,48.3,46.1,30.35,East,84,6.0,6.0,92,0.00,,-RA,0.18,0.00,VWS V14.01,2013-05-26 02:27:00,
2013-05-25 21:32:00,48.3,46.1,30.35,East,82,1.0,7.0,92,0.00,,-RA,0.18,0.00,VWS V14.01,2013-05-26 02:32:00,
2013-05-25 21:37:00,48.3,46.1,30.36,East,87,4.0,10.0,92,0.00,,-RA,0.18,0.00,VWS V14.01,2013-05-26 02:37:00,
2013-05-25 21:43:00,48.2,46.0,30.36,ENE,67,5.0,5.0,92,0.00,,-RA,0.18,0.00,VWS V14.01,2013-05-26 02:43:00,
2013-05-25 21:48:00,48.2,46.0,30.36,East,80,7.0,8.0,92,0.00,,-RA,0.18,0.00,VWS V14.01,2013-05-26 02:48:00,
2013-05-25 21:53:00,48.0,45.8,30.36,ENE,75,5.0,11.0,92,0.01,,-RA,0.19,0.00,VWS V14.01,2013-05-26 02:53:00,
2013-05-25 21:58:00,48.0,45.8,30.36,NNE,27,11.0,11.0,92,0.02,,-RA,0.20,0.00,VWS V14.01,2013-05-26 02:58:00,
2013-05-25 22:03:00,48.0,45.8,30.37,ENE,59,3.0,8.0,92,0.04,,-RA,0.22,0.00,VWS V14.01,2013-05-26 03:03:00,
2013-05-25 22:08:00,48.0,46.1,30.36,ENE,63,5.0,8.0,93,0.06,,-RA,0.24,0.00,VWS V14.01,2013-05-26 03:08:00,
2013-05-25 22:13:00,48.2,46.3,30.37,ENE,71,3.0,3.0,93,0.06,,-RA,0.24,0.00,VWS V14.01,2013-05-26 03:13:00,
2013-05-25 22:18:00,48.2,46.6,30.37,ENE,57,5.0,6.0,94,0.08,,-RA,0.26,0.00,VWS V14.01,2013-05-26 03:18:00,
2013-05-25 22:23:00,48.3,46.7,30.37,ENE,78,2.0,5.0,94,0.10,,-RA,0.28,0.00,VWS V14.01,2013-05-26 03:23:00,
2013-05-25 22:28:00,48.5,46.9,30.37,ENE,77,4.0,5.0,94,0.10,,-RA,0.28,0.00,VWS V14.01,2013-05-26 03:28:00,
2013-05-25 22:33:00,48.5,46.9,30.37,East,80,8.0,11.0,94,0.10,,-RA,0.28,0.00,VWS V14.01,2013-05-26 03:33:00,
2013-05-25 22:38:00,48.6,47.0,30.36,NE,42,4.0,8.0,94,0.10,,-RA,0.28,0.00,VWS V14.01,2013-05-26 03:38:00,
2013-05-25 22:43:00,48.6,47.0,30.37,East,101,11.0,11.0,94,0.11,,-RA,0.29,0.00,VWS V14.01,2013-05-26 03:43:00,
2013-05-25 22:48:00,48.8,47.2,30.36,NE,56,5.0,7.0,94,0.11,,-RA,0.29,0.00,VWS V14.01,2013-05-26 03:48:00,
2013-05-25 22:53:00,48.9,47.2,30.36,ENE,67,6.0,6.0,94,0.10,,-RA,0.29,0.00,VWS V14.01,2013-05-26 03:53:00,
2013-05-25 22:58:00,48.9,47.5,30.37,ENE,77,4.0,10.0,95,0.09,,-RA,0.29,0.00,VWS V14.01,2013-05-26 03:58:00,
2013-05-25 23:01:00,48.9,47.5,30.36,East,85,3.0,8.0,95,0.08,,-RA,0.29,0.00,VWS V14.01,2013-05-26 04:01:00,
2013-05-25 23:02:00,48.9,47.5,30.36,ENE,75,3.0,7.0,95,0.08,,-RA,0.29,0.00,VWS V14.01,2013-05-26 04:02:00,
2013-05-25 23:03:00,48.9,47.5,30.36,NE,42,5.0,6.0,95,0.08,,-RA,0.29,0.00,VWS V14.01,2013-05-26 04:03:00,
2013-05-25 23:04:00,48.9,47.5,30.36,ENE,63,3.0,8.0,95,0.07,,-RA,0.29,0.00,VWS V14.01,2013-05-26 04:04:00,
2013-05-25 23:06:00,49.1,47.7,30.36,ENE,65,6.0,10.0,95,0.07,,-RA,0.29,0.00,VWS V14.01,2013-05-26 04:06:00,
2013-05-25 23:11:00,49.1,47.7,30.36,ENE,71,2.0,5.0,95,0.05,,-RA,0.29,0.00,VWS V14.01,2013-05-26 04:11:00,
2013-05-25 23:16:00,49.1,47.5,30.36,ENE,67,2.0,7.0,94,0.04,,-RA,0.29,0.00,VWS V14.01,2013-05-26 04:16:00,
2013-05-25 23:21:00,49.1,47.5,30.36,ENE,67,3.0,4.0,94,0.02,,-RA,0.29,0.00,VWS V14.01,2013-05-26 04:21:00,
2013-05-25 23:26:00,49.1,47.5,30.36,East,92,5.0,5.0,94,0.01,,-RA,0.29,0.00,VWS V14.01,2013-05-26 04:26:00,
2013-05-25 23:31:00,49.2,47.5,30.36,East,97,5.0,6.0,94,0.01,,-RA,0.29,0.00,VWS V14.01,2013-05-26 04:31:00,
2013-05-25 23:37:00,49.2,47.5,30.35,ESE,114,1.0,5.0,94,0.01,,-RA,0.29,0.00,VWS V14.01,2013-05-26 04:37:00,
2013-05-25 23:42:00,49.2,47.5,30.35,ESE,116,2.0,6.0,94,0.00,,-RA,0.29,0.00,VWS V14.01,2013-05-26 04:42:00,
2013-05-25 23:47:00,49.4,47.8,30.35,East,98,2.0,4.0,94,0.00,,-RA,0.29,0.00,VWS V14.01,2013-05-26 04:47:00,
2013-05-25 23:52:00,49.4,47.5,30.35,ESE,114,4.0,5.0,93,0.00,,-RA,0.29,0.00,VWS V14.01,2013-05-26 04:52:00,
2013-05-25 23:57:00,49.5,47.6,30.35,ESE,102,0.0,6.0,93,0.00,,-RA,0.29,0.00,VWS V14.01,2013-05-26 04:57:00,